Location: Rowland
(34.5359°N, 79.2929°W)
Time: 16:59:34
(UTC+00:00)

S-56A Canister/Altair - Pass Details

Date: 06 October 2022
Orbit: 638 x 2494 km, 38.9° (Epoch: 06 December)

Event Time Altitude Azimuth Distance (km) Brightness Sun altitude
Exits shadow 09:51:49 21° 290° (WNW) 2,743 9.8 -18.1°
Maximum altitude 09:58:00 88° 17° (NNE) 1,118 8.3 -16.8°
Drops below altitude 10° 10:03:57 10° 110° (ESE) 2,503 11.2 -15.6°
Sets 10:06:03 0° 110° (ESE) 3,288 12.0 -15.1°
